sat.trackr.live / text

‹ back to catalog

QIANFAN-147

NORAD 69106 · 2026-108C

PAYLOAD ACTIVE UNKNOWN

§ Identity

Operator
Country
PRC
Launch date
2026-05-17
Launch site
WSC
Launch vehicle
Mass (kg)
RCS (m²)

External: N2YO · Heavens-Above · Gunter

§ Orbital elements

Epoch: 2026-09-20T03:59:32.804160Z

Period
106.59 min
Inclination
89.0195°
Eccentricity
0.0002083
Mean motion
13.51025141 rev/d
Perigee alt
1,066.9 km
Apogee alt
1,070.0 km
Semi-major
7,446.6 km
B*
1.5539e-4
RAAN
12.5717°
Arg perigee
103.2845°
Mean anomaly
256.8538°
Rev number
1,725

§ Raw data

QIANFAN-1471 69106U 26108C   26263.16635190  .00000112  00000+0  15539-3 0  99982 69106  89.0195  12.5717 0002083 103.2845 256.8538 13.51025141 17250

JSON: /api/v1/satellites/69106 · /tle

For live sub-satellite position, see the globe view (requires WebGL).

§ Visibility from observer

Set your observer location to see the next 7 days of passes ≥ 10°. The values pass through the URL so the page stays shareable.

No JS? Fill the form by hand. The geolocation button needs JavaScript.